Year,Month,Day,Hour,Minute,Value (Times are PST for windgust in km/hr)
2013,09,26,00,00,4.80
2013,09,26,00,01,3.20
2013,09,26,00,02,1.60
2013,09,26,00,03,1.60
2013,09,26,00,04,1.60
2013,09,26,00,05,1.60
2013,09,26,00,09,3.20
2013,09,26,00,10,1.60
2013,09,26,00,12,3.20
2013,09,26,00,13,3.20
2013,09,26,00,14,3.20
2013,09,26,00,15,1.60
2013,09,26,00,21,1.60
2013,09,26,00,22,1.60
2013,09,26,00,23,1.60
2013,09,26,00,26,1.60
2013,09,26,00,27,3.20
2013,09,26,00,28,4.80
2013,09,26,00,29,3.20
2013,09,26,00,30,1.60
2013,09,26,00,32,3.20
2013,09,26,00,33,3.20
2013,09,26,00,34,3.20
2013,09,26,00,35,1.60
2013,09,26,00,36,3.20
2013,09,26,00,37,3.20
2013,09,26,00,38,3.20
2013,09,26,00,39,4.80
2013,09,26,00,40,6.40
2013,09,26,00,41,4.80
2013,09,26,00,42,4.80
2013,09,26,00,43,4.80
2013,09,26,00,44,3.20
2013,09,26,00,45,3.20
2013,09,26,00,46,4.80
2013,09,26,00,47,4.80
2013,09,26,00,48,4.80
2013,09,26,00,49,4.80
2013,09,26,00,50,4.80
2013,09,26,00,51,3.20
2013,09,26,00,52,3.20
2013,09,26,00,53,3.20
2013,09,26,00,54,1.60
2013,09,26,00,55,1.60
2013,09,26,00,56,3.20
2013,09,26,00,57,4.80
2013,09,26,00,58,6.40
2013,09,26,00,59,4.80
2013,09,26,01,00,3.20
2013,09,26,01,01,4.80
2013,09,26,01,02,4.80
2013,09,26,01,03,3.20
2013,09,26,01,04,4.80
2013,09,26,01,05,3.20
2013,09,26,01,06,1.60
2013,09,26,01,07,3.20
2013,09,26,01,08,3.20
2013,09,26,01,09,3.20
2013,09,26,01,10,3.20
2013,09,26,01,11,3.20
2013,09,26,01,12,3.20
2013,09,26,01,14,1.60
2013,09,26,01,15,1.60
2013,09,26,01,16,1.60
2013,09,26,01,20,4.80
2013,09,26,01,21,4.80
2013,09,26,01,22,4.80
2013,09,26,01,23,4.80
2013,09,26,01,24,4.80
2013,09,26,01,25,4.80
2013,09,26,01,26,4.80
2013,09,26,01,27,4.80
2013,09,26,01,28,4.80
2013,09,26,01,29,4.80
2013,09,26,01,30,4.80
2013,09,26,01,31,4.80
2013,09,26,01,32,4.80
2013,09,26,01,33,4.80
2013,09,26,01,34,3.20
2013,09,26,01,35,4.80
2013,09,26,01,36,4.80
2013,09,26,01,37,3.20
2013,09,26,01,38,3.20
2013,09,26,01,39,1.60
2013,09,26,01,40,3.20
2013,09,26,01,41,1.60
2013,09,26,01,42,3.20
2013,09,26,01,43,3.20
2013,09,26,01,44,1.60
2013,09,26,01,45,3.20
2013,09,26,01,46,3.20
2013,09,26,01,47,3.20
2013,09,26,01,48,3.20
2013,09,26,01,49,1.60
2013,09,26,01,51,1.60
2013,09,26,02,01,3.20
2013,09,26,02,02,3.20
2013,09,26,02,03,1.60
2013,09,26,02,04,3.20
2013,09,26,02,05,1.60
2013,09,26,02,06,3.20
2013,09,26,02,07,3.20
2013,09,26,02,10,3.20
2013,09,26,02,11,3.20
2013,09,26,02,12,4.80
2013,09,26,02,13,4.80
2013,09,26,02,14,3.20
2013,09,26,02,15,3.20
2013,09,26,02,17,1.60
2013,09,26,02,18,3.20
2013,09,26,02,19,3.20
2013,09,26,02,20,3.20
2013,09,26,02,21,3.20
2013,09,26,02,22,1.60
2013,09,26,02,23,1.60
2013,09,26,02,24,1.60
2013,09,26,02,25,3.20
2013,09,26,02,26,4.80
2013,09,26,02,27,3.20
2013,09,26,02,28,3.20
2013,09,26,02,29,1.60
2013,09,26,03,09,1.60
2013,09,26,03,10,3.20
2013,09,26,03,11,1.60
2013,09,26,03,12,3.20
2013,09,26,03,13,3.20
2013,09,26,03,14,3.20
2013,09,26,03,15,3.20
2013,09,26,03,16,3.20
2013,09,26,03,17,3.20
2013,09,26,03,18,3.20
2013,09,26,03,19,3.20
2013,09,26,03,20,1.60
2013,09,26,03,21,3.20
2013,09,26,03,22,4.80
2013,09,26,03,23,4.80
2013,09,26,03,24,4.80
2013,09,26,03,25,4.80
2013,09,26,03,26,4.80
2013,09,26,03,27,4.80
2013,09,26,03,28,4.80
2013,09,26,03,29,4.80
2013,09,26,03,30,4.80
2013,09,26,03,31,4.80
2013,09,26,03,32,3.20
2013,09,26,03,33,3.20
2013,09,26,03,34,4.80
2013,09,26,03,35,3.20
2013,09,26,03,36,4.80
2013,09,26,03,37,6.40
2013,09,26,03,38,4.80
2013,09,26,03,39,4.80
2013,09,26,03,40,4.80
2013,09,26,03,41,4.80
2013,09,26,03,42,4.80
2013,09,26,03,43,4.80
2013,09,26,03,44,4.80
2013,09,26,03,45,4.80
2013,09,26,03,46,3.20
2013,09,26,03,47,3.20
2013,09,26,03,48,3.20
2013,09,26,03,49,3.20
2013,09,26,03,50,4.80
2013,09,26,03,51,6.40
2013,09,26,03,52,8.10
2013,09,26,03,53,8.10
2013,09,26,03,54,8.10
2013,09,26,03,55,6.40
2013,09,26,03,56,4.80
2013,09,26,03,57,6.40
2013,09,26,03,58,6.40
2013,09,26,03,59,4.80
2013,09,26,04,00,4.80
2013,09,26,04,01,4.80
2013,09,26,04,02,4.80
2013,09,26,04,03,4.80
2013,09,26,04,04,4.80
2013,09,26,04,05,3.20
2013,09,26,04,06,4.80
2013,09,26,04,07,4.80
2013,09,26,04,08,4.80
2013,09,26,04,09,4.80
2013,09,26,04,10,3.20
2013,09,26,04,11,3.20
2013,09,26,04,12,3.20
2013,09,26,04,13,4.80
2013,09,26,04,14,4.80
2013,09,26,04,15,4.80
2013,09,26,04,16,4.80
2013,09,26,04,17,4.80
2013,09,26,04,18,4.80
2013,09,26,04,19,4.80
2013,09,26,04,20,4.80
2013,09,26,04,21,6.40
2013,09,26,04,22,4.80
2013,09,26,04,23,3.20
2013,09,26,04,24,1.60
2013,09,26,04,26,1.60
2013,09,26,04,27,1.60
2013,09,26,04,28,1.60
2013,09,26,04,29,1.60
2013,09,26,04,30,3.20
2013,09,26,04,31,1.60
2013,09,26,04,38,3.20
2013,09,26,04,41,1.60
2013,09,26,04,43,4.80
2013,09,26,04,44,6.40
2013,09,26,04,45,4.80
2013,09,26,04,46,4.80
2013,09,26,04,47,3.20
2013,09,26,04,48,4.80
2013,09,26,04,49,3.20
2013,09,26,04,51,1.60
2013,09,26,04,52,3.20
2013,09,26,04,53,3.20
2013,09,26,04,54,3.20
2013,09,26,04,55,3.20
2013,09,26,04,56,6.40
2013,09,26,04,57,4.80
2013,09,26,04,58,8.10
2013,09,26,04,59,6.40
2013,09,26,05,00,6.40
2013,09,26,05,01,6.40
2013,09,26,05,02,4.80
2013,09,26,05,03,4.80
2013,09,26,05,04,4.80
2013,09,26,05,05,4.80
2013,09,26,05,06,3.20
2013,09,26,05,07,3.20
2013,09,26,05,16,1.60
2013,09,26,05,17,1.60
2013,09,26,05,18,3.20
2013,09,26,05,23,1.60
2013,09,26,05,27,1.60
2013,09,26,05,28,1.60
2013,09,26,05,50,3.20
2013,09,26,05,51,3.20
2013,09,26,05,52,1.60
2013,09,26,05,53,3.20
2013,09,26,05,54,4.80
2013,09,26,05,55,1.60
2013,09,26,05,59,3.20
2013,09,26,06,00,3.20
2013,09,26,06,01,4.80
2013,09,26,06,02,4.80
2013,09,26,06,03,3.20
2013,09,26,06,04,3.20
2013,09,26,06,07,1.60
2013,09,26,06,24,1.60
2013,09,26,06,26,1.60
2013,09,26,06,27,3.20
2013,09,26,06,28,1.60
2013,09,26,06,29,1.60
2013,09,26,06,30,3.20
2013,09,26,06,31,3.20
2013,09,26,06,36,1.60
2013,09,26,08,59,6.40
2013,09,26,09,00,8.10
2013,09,26,09,01,4.80
2013,09,26,09,02,4.80
2013,09,26,09,03,4.80
2013,09,26,09,04,4.80
2013,09,26,09,05,6.40
2013,09,26,09,06,6.40
2013,09,26,09,07,4.80
2013,09,26,09,08,8.10
2013,09,26,09,09,8.10
2013,09,26,09,10,8.10
2013,09,26,09,11,8.10
2013,09,26,09,12,6.40
2013,09,26,09,13,4.80
2013,09,26,09,14,4.80
2013,09,26,09,15,3.20
2013,09,26,09,16,4.80
2013,09,26,09,17,3.20
2013,09,26,09,18,4.80
2013,09,26,09,19,3.20
2013,09,26,09,20,4.80
2013,09,26,09,21,4.80
2013,09,26,09,22,6.40
2013,09,26,09,23,4.80
2013,09,26,09,24,4.80
2013,09,26,09,25,4.80
2013,09,26,09,26,6.40
2013,09,26,09,27,8.10
2013,09,26,09,28,4.80
2013,09,26,09,29,8.10
2013,09,26,09,30,9.60
2013,09,26,09,31,3.20
2013,09,26,09,32,3.20
2013,09,26,09,33,6.40
2013,09,26,09,34,8.10
2013,09,26,09,35,8.10
2013,09,26,09,36,6.40
2013,09,26,09,37,4.80
2013,09,26,09,38,1.60
2013,09,26,09,39,6.40
2013,09,26,09,40,6.40
2013,09,26,09,41,3.20
2013,09,26,09,42,4.80
2013,09,26,09,43,4.80
2013,09,26,09,44,4.80
2013,09,26,09,45,1.60
2013,09,26,09,46,6.40
2013,09,26,09,47,3.20
2013,09,26,09,48,4.80
2013,09,26,09,49,8.10
2013,09,26,09,50,6.40
2013,09,26,09,51,4.80
2013,09,26,09,52,4.80
2013,09,26,09,53,4.80
2013,09,26,09,54,8.10
2013,09,26,09,55,8.10
2013,09,26,09,56,3.20
2013,09,26,09,57,4.80
2013,09,26,09,58,4.80
2013,09,26,09,59,4.80
2013,09,26,10,00,8.10
2013,09,26,10,01,6.40
2013,09,26,10,02,3.20
2013,09,26,10,03,3.20
2013,09,26,10,04,4.80
2013,09,26,10,05,9.60
2013,09,26,10,06,9.60
2013,09,26,10,07,8.10
2013,09,26,10,08,8.10
2013,09,26,10,09,8.10
2013,09,26,10,10,8.10
2013,09,26,10,11,6.40
2013,09,26,10,12,11.30
2013,09,26,10,13,14.50
2013,09,26,10,14,9.60
2013,09,26,10,15,3.20
2013,09,26,10,16,6.40
2013,09,26,10,17,8.10
2013,09,26,10,18,8.10
2013,09,26,10,19,4.80
2013,09,26,10,20,6.40
2013,09,26,10,21,11.30
2013,09,26,10,22,11.30
2013,09,26,10,23,9.60
2013,09,26,10,24,4.80
2013,09,26,10,25,6.40
2013,09,26,10,26,4.80
2013,09,26,10,27,3.20
2013,09,26,10,28,11.30
2013,09,26,10,29,9.60
2013,09,26,10,30,9.60
2013,09,26,10,31,8.10
2013,09,26,10,32,6.40
2013,09,26,10,33,17.70
2013,09,26,10,34,16.10
2013,09,26,10,35,6.40
2013,09,26,10,36,6.40
2013,09,26,10,37,8.10
2013,09,26,10,38,9.60
2013,09,26,10,39,6.40
2013,09,26,10,40,3.20
2013,09,26,10,41,6.40
2013,09,26,10,42,8.10
2013,09,26,10,43,8.10
2013,09,26,10,44,8.10
2013,09,26,10,45,11.30
2013,09,26,10,46,9.60
2013,09,26,10,47,8.10
2013,09,26,10,48,8.10
2013,09,26,10,49,4.80
2013,09,26,10,50,8.10
2013,09,26,10,51,11.30
2013,09,26,10,52,8.10
2013,09,26,10,53,4.80
2013,09,26,10,54,9.60
2013,09,26,10,55,6.40
2013,09,26,10,56,4.80
2013,09,26,10,57,6.40
2013,09,26,10,58,8.10
2013,09,26,10,59,11.30
2013,09,26,11,00,4.80
2013,09,26,11,01,4.80
2013,09,26,11,02,4.80
2013,09,26,11,03,4.80
2013,09,26,11,04,8.10
2013,09,26,11,05,4.80
2013,09,26,11,06,6.40
2013,09,26,11,07,4.80
2013,09,26,11,08,4.80
2013,09,26,11,09,9.60
2013,09,26,11,10,3.20
2013,09,26,11,11,1.60
2013,09,26,11,13,6.40
2013,09,26,11,14,11.30
2013,09,26,11,15,4.80
2013,09,26,11,16,6.40
2013,09,26,11,17,8.10
2013,09,26,11,18,8.10
2013,09,26,11,19,6.40
2013,09,26,11,20,11.30
2013,09,26,11,21,8.10
2013,09,26,11,22,6.40
2013,09,26,11,23,4.80
2013,09,26,11,24,3.20
2013,09,26,11,25,4.80
2013,09,26,11,26,4.80
2013,09,26,11,27,8.10
2013,09,26,11,28,4.80
2013,09,26,11,29,9.60
2013,09,26,11,30,11.30
2013,09,26,11,31,11.30
2013,09,26,11,32,9.60
2013,09,26,11,33,16.10
2013,09,26,11,34,11.30
2013,09,26,11,35,9.60
2013,09,26,11,36,11.30
2013,09,26,11,37,8.10
2013,09,26,11,38,4.80
2013,09,26,11,39,6.40
2013,09,26,11,40,6.40
2013,09,26,11,41,6.40
2013,09,26,11,42,17.70
2013,09,26,11,43,12.90
2013,09,26,11,44,12.90
2013,09,26,11,45,9.60
2013,09,26,11,46,17.70
2013,09,26,11,47,8.10
2013,09,26,11,48,9.60
2013,09,26,11,49,8.10
2013,09,26,11,50,11.30
2013,09,26,11,51,12.90
2013,09,26,11,52,4.80
2013,09,26,11,53,8.10
2013,09,26,11,54,8.10
2013,09,26,11,55,9.60
2013,09,26,11,56,9.60
2013,09,26,11,57,11.30
2013,09,26,11,58,9.60
2013,09,26,11,59,17.70
2013,09,26,12,00,9.60
2013,09,26,12,01,14.50
2013,09,26,12,02,16.10
2013,09,26,12,03,6.40
2013,09,26,12,04,6.40
2013,09,26,12,05,11.30
2013,09,26,12,06,11.30
2013,09,26,12,07,8.10
2013,09,26,12,08,6.40
2013,09,26,12,09,12.90
2013,09,26,12,10,16.10
2013,09,26,12,11,9.60
2013,09,26,12,12,9.60
2013,09,26,12,13,6.40
2013,09,26,12,14,6.40
2013,09,26,12,15,9.60
2013,09,26,12,16,8.10
2013,09,26,12,17,8.10
2013,09,26,12,18,9.60
2013,09,26,12,19,16.10
2013,09,26,12,20,9.60
2013,09,26,12,21,9.60
2013,09,26,12,22,9.60
2013,09,26,12,23,8.10
2013,09,26,12,24,9.60
2013,09,26,12,25,6.40
2013,09,26,12,26,8.10
2013,09,26,12,27,9.60
2013,09,26,12,28,11.30
2013,09,26,12,29,9.60
2013,09,26,12,30,9.60
2013,09,26,12,31,9.60
2013,09,26,12,32,4.80
2013,09,26,12,33,4.80
2013,09,26,12,34,8.10
2013,09,26,12,35,6.40
2013,09,26,12,36,11.30
2013,09,26,12,37,4.80
2013,09,26,12,38,8.10
2013,09,26,12,39,9.60
2013,09,26,12,40,16.10
2013,09,26,12,41,8.10
2013,09,26,12,42,9.60
2013,09,26,12,43,8.10
2013,09,26,12,44,8.10
2013,09,26,12,45,11.30
2013,09,26,12,46,16.10
2013,09,26,12,47,9.60
2013,09,26,12,48,8.10
2013,09,26,12,49,16.10
2013,09,26,12,50,14.50
2013,09,26,12,51,14.50
2013,09,26,12,52,8.10
2013,09,26,12,53,16.10
2013,09,26,12,54,17.70
2013,09,26,12,55,14.50
2013,09,26,12,56,17.70
2013,09,26,12,57,14.50
2013,09,26,12,58,9.60
2013,09,26,12,59,11.30
2013,09,26,13,00,8.10
2013,09,26,13,01,6.40
2013,09,26,13,02,4.80
2013,09,26,13,03,6.40
2013,09,26,13,04,6.40
2013,09,26,13,05,3.20
2013,09,26,13,06,8.10
2013,09,26,13,07,9.60
2013,09,26,13,08,6.40
2013,09,26,13,09,8.10
2013,09,26,13,10,4.80
2013,09,26,13,11,6.40
2013,09,26,13,12,4.80
2013,09,26,13,13,3.20
2013,09,26,13,14,12.90
2013,09,26,13,15,11.30
2013,09,26,13,16,14.50
2013,09,26,13,17,8.10
2013,09,26,13,18,4.80
2013,09,26,13,19,11.30
2013,09,26,13,20,11.30
2013,09,26,13,21,16.10
2013,09,26,13,22,14.50
2013,09,26,13,23,16.10
2013,09,26,13,24,14.50
2013,09,26,13,25,17.70
2013,09,26,13,26,16.10
2013,09,26,13,27,11.30
2013,09,26,13,28,19.30
2013,09,26,13,29,16.10
2013,09,26,13,30,17.70
2013,09,26,13,31,14.50
2013,09,26,13,32,14.50
2013,09,26,13,33,14.50
2013,09,26,13,34,14.50
2013,09,26,13,35,14.50
2013,09,26,13,36,9.60
2013,09,26,13,37,8.10
2013,09,26,13,38,8.10
2013,09,26,13,39,3.20
2013,09,26,13,40,4.80
2013,09,26,13,41,4.80
2013,09,26,13,42,8.10
2013,09,26,13,43,8.10
2013,09,26,13,44,6.40
2013,09,26,13,45,11.30
2013,09,26,13,46,8.10
2013,09,26,13,47,11.30
2013,09,26,13,48,4.80
2013,09,26,13,49,8.10
2013,09,26,13,50,16.10
2013,09,26,13,51,14.50
2013,09,26,13,52,17.70
2013,09,26,13,53,8.10
2013,09,26,13,54,11.30
2013,09,26,13,55,9.60
2013,09,26,13,56,14.50
2013,09,26,13,57,17.70
2013,09,26,13,58,16.10
2013,09,26,13,59,12.90
2013,09,26,14,00,14.50
2013,09,26,14,01,14.50
2013,09,26,14,02,14.50
2013,09,26,14,03,16.10
2013,09,26,14,04,17.70
2013,09,26,14,05,19.30
2013,09,26,14,06,17.70
2013,09,26,14,07,17.70
2013,09,26,14,08,14.50
2013,09,26,14,09,16.10
2013,09,26,14,10,14.50
2013,09,26,14,11,9.60
2013,09,26,14,12,14.50
2013,09,26,14,13,14.50
2013,09,26,14,14,9.60
2013,09,26,14,15,11.30
2013,09,26,14,16,14.50
2013,09,26,14,17,14.50
2013,09,26,14,18,17.70
2013,09,26,14,19,6.40
2013,09,26,14,20,9.60
2013,09,26,14,21,16.10
2013,09,26,14,22,17.70
2013,09,26,14,23,16.10
2013,09,26,14,24,16.10
2013,09,26,14,25,17.70
2013,09,26,14,26,17.70
2013,09,26,14,27,14.50
2013,09,26,14,28,17.70
2013,09,26,14,29,16.10
2013,09,26,14,30,14.50
2013,09,26,14,31,11.30
2013,09,26,14,32,8.10
2013,09,26,14,33,17.70
2013,09,26,14,34,16.10
2013,09,26,14,35,14.50
2013,09,26,14,36,6.40
2013,09,26,14,37,14.50
2013,09,26,14,38,14.50
2013,09,26,14,39,16.10
2013,09,26,14,40,11.30
2013,09,26,14,41,11.30
2013,09,26,14,42,12.90
2013,09,26,14,43,14.50
2013,09,26,14,44,9.60
2013,09,26,14,45,14.50
2013,09,26,14,46,17.70
2013,09,26,14,47,9.60
2013,09,26,14,48,17.70
2013,09,26,14,49,14.50
2013,09,26,14,50,16.10
2013,09,26,14,51,12.90
2013,09,26,14,52,16.10
2013,09,26,14,53,11.30
2013,09,26,14,54,9.60
2013,09,26,14,55,9.60
2013,09,26,14,56,12.90
2013,09,26,14,57,16.10
2013,09,26,14,58,14.50
2013,09,26,14,59,17.70
2013,09,26,15,00,11.30
2013,09,26,15,01,9.60
2013,09,26,15,02,12.90
2013,09,26,15,03,11.30
2013,09,26,15,04,12.90
2013,09,26,15,05,11.30
2013,09,26,15,06,11.30
2013,09,26,15,07,12.90
2013,09,26,15,08,11.30
2013,09,26,15,09,11.30
2013,09,26,15,10,11.30
2013,09,26,15,11,11.30
2013,09,26,15,12,14.50
2013,09,26,15,13,4.80
2013,09,26,15,14,11.30
2013,09,26,15,15,12.90
2013,09,26,15,16,9.60
2013,09,26,15,17,11.30
2013,09,26,15,18,11.30
2013,09,26,15,19,12.90
2013,09,26,15,20,9.60
2013,09,26,15,21,9.60
2013,09,26,15,22,11.30
2013,09,26,15,23,11.30
2013,09,26,15,24,14.50
2013,09,26,15,25,11.30
2013,09,26,15,26,8.10
2013,09,26,15,27,11.30
2013,09,26,15,28,14.50
2013,09,26,15,29,16.10
2013,09,26,15,30,11.30
2013,09,26,15,31,11.30
2013,09,26,15,32,11.30
2013,09,26,15,33,17.70
2013,09,26,15,34,17.70
2013,09,26,15,35,17.70
2013,09,26,15,36,11.30
2013,09,26,15,37,17.70
2013,09,26,15,38,9.60
2013,09,26,15,39,19.30
2013,09,26,15,40,20.90
2013,09,26,15,41,16.10
2013,09,26,15,42,12.90
2013,09,26,15,43,16.10
2013,09,26,15,44,19.30
2013,09,26,15,45,11.30
2013,09,26,15,46,8.10
2013,09,26,15,47,11.30
2013,09,26,15,48,11.30
2013,09,26,15,49,4.80
2013,09,26,15,50,9.60
2013,09,26,15,51,3.20
2013,09,26,15,52,14.50
2013,09,26,15,53,11.30
2013,09,26,15,54,12.90
2013,09,26,15,55,14.50
2013,09,26,15,56,16.10
2013,09,26,15,57,11.30
2013,09,26,15,58,9.60
2013,09,26,15,59,11.30
2013,09,26,16,00,11.30
2013,09,26,16,01,11.30
2013,09,26,16,02,16.10
2013,09,26,16,03,11.30
2013,09,26,16,04,9.60
2013,09,26,16,05,9.60
2013,09,26,16,06,9.60
2013,09,26,16,07,9.60
2013,09,26,16,08,11.30
2013,09,26,16,09,16.10
2013,09,26,16,10,8.10
2013,09,26,16,11,9.60
2013,09,26,16,12,14.50
2013,09,26,16,13,11.30
2013,09,26,16,14,14.50
2013,09,26,16,15,11.30
2013,09,26,16,16,11.30
2013,09,26,16,17,16.10
2013,09,26,16,18,6.40
2013,09,26,16,19,9.60
2013,09,26,16,20,11.30
2013,09,26,16,21,9.60
2013,09,26,16,22,12.90
2013,09,26,16,23,8.10
2013,09,26,16,24,11.30
2013,09,26,16,25,9.60
2013,09,26,16,26,8.10
2013,09,26,16,27,8.10
2013,09,26,16,28,6.40
2013,09,26,16,29,4.80
2013,09,26,16,30,8.10
2013,09,26,16,31,8.10
2013,09,26,16,32,8.10
2013,09,26,16,33,6.40
2013,09,26,16,34,6.40
2013,09,26,16,35,6.40
2013,09,26,16,36,11.30
2013,09,26,16,37,8.10
2013,09,26,16,38,8.10
2013,09,26,16,39,6.40
2013,09,26,16,40,6.40
2013,09,26,16,41,8.10
2013,09,26,16,42,8.10
2013,09,26,16,43,8.10
2013,09,26,16,44,8.10
2013,09,26,16,45,9.60
2013,09,26,16,46,14.50
2013,09,26,16,47,9.60
2013,09,26,16,48,9.60
2013,09,26,16,49,8.10
2013,09,26,16,50,9.60
2013,09,26,16,51,9.60
2013,09,26,16,52,9.60
2013,09,26,16,53,11.30
2013,09,26,16,54,8.10
2013,09,26,16,56,8.10
2013,09,26,16,57,8.10
2013,09,26,16,58,3.20
2013,09,26,16,59,8.10
2013,09,26,17,00,9.60
2013,09,26,17,01,11.30
2013,09,26,17,02,8.10
2013,09,26,17,03,1.60
2013,09,26,17,04,8.10
2013,09,26,17,05,8.10
2013,09,26,17,06,9.60
2013,09,26,17,07,4.80
2013,09,26,17,08,11.30
2013,09,26,17,09,11.30
2013,09,26,17,10,9.60
2013,09,26,17,11,8.10
2013,09,26,17,12,11.30
2013,09,26,17,13,6.40
2013,09,26,17,14,9.60
2013,09,26,17,15,9.60
2013,09,26,17,16,9.60
2013,09,26,17,17,12.90
2013,09,26,17,18,8.10
2013,09,26,17,19,8.10
2013,09,26,17,20,8.10
2013,09,26,17,21,4.80
2013,09,26,17,22,4.80
2013,09,26,17,23,8.10
2013,09,26,17,24,8.10
2013,09,26,17,25,9.60
2013,09,26,17,26,8.10
2013,09,26,17,27,8.10
2013,09,26,17,28,4.80
2013,09,26,17,29,9.60
2013,09,26,17,30,3.20
2013,09,26,17,31,4.80
2013,09,26,17,32,9.60
2013,09,26,17,33,8.10
2013,09,26,17,34,8.10
2013,09,26,17,35,6.40
2013,09,26,17,36,4.80
2013,09,26,17,37,3.20
2013,09,26,17,38,6.40
2013,09,26,17,39,6.40
2013,09,26,17,40,4.80
2013,09,26,17,41,11.30
2013,09,26,17,42,11.30
2013,09,26,17,43,6.40
2013,09,26,17,44,6.40
2013,09,26,17,45,3.20
2013,09,26,17,46,8.10
2013,09,26,17,47,6.40
2013,09,26,17,48,8.10
2013,09,26,17,49,8.10
2013,09,26,17,50,9.60
2013,09,26,17,51,9.60
2013,09,26,17,52,8.10
2013,09,26,17,53,9.60
2013,09,26,17,54,8.10
2013,09,26,17,55,6.40
2013,09,26,17,56,6.40
2013,09,26,17,57,8.10
2013,09,26,17,58,6.40
2013,09,26,17,59,9.60
2013,09,26,18,00,8.10
2013,09,26,18,01,11.30
2013,09,26,18,02,11.30
2013,09,26,18,03,8.10
2013,09,26,18,04,9.60
2013,09,26,18,05,8.10
2013,09,26,18,06,8.10
2013,09,26,18,07,8.10
2013,09,26,18,08,6.40
2013,09,26,18,09,6.40
2013,09,26,18,10,6.40
2013,09,26,18,11,4.80
2013,09,26,18,12,6.40
2013,09,26,18,13,4.80
2013,09,26,18,14,8.10
2013,09,26,18,15,8.10
2013,09,26,18,16,6.40
2013,09,26,18,17,4.80
2013,09,26,18,18,8.10
2013,09,26,18,19,6.40
2013,09,26,18,20,4.80
2013,09,26,18,21,1.60
2013,09,26,18,22,1.60
2013,09,26,18,23,3.20
2013,09,26,18,24,3.20
2013,09,26,18,25,4.80
2013,09,26,18,26,4.80
2013,09,26,18,27,4.80
2013,09,26,18,28,6.40
2013,09,26,18,29,6.40
2013,09,26,18,30,4.80
2013,09,26,18,31,4.80
2013,09,26,18,33,1.60
2013,09,26,18,34,1.60
2013,09,26,18,36,1.60
2013,09,26,18,37,4.80
2013,09,26,18,38,3.20
2013,09,26,18,39,3.20
2013,09,26,18,40,1.60
2013,09,26,18,41,1.60
2013,09,26,18,42,3.20
2013,09,26,18,43,1.60
2013,09,26,18,46,3.20
2013,09,26,18,47,4.80
2013,09,26,18,48,3.20
2013,09,26,18,49,3.20
2013,09,26,18,50,1.60
2013,09,26,18,51,3.20
2013,09,26,18,52,3.20
2013,09,26,18,53,1.60
2013,09,26,18,55,3.20
2013,09,26,18,56,1.60
2013,09,26,18,57,4.80
2013,09,26,18,58,3.20
2013,09,26,18,59,1.60
2013,09,26,19,01,3.20
2013,09,26,19,02,3.20
2013,09,26,19,03,3.20
2013,09,26,19,04,1.60
2013,09,26,19,05,1.60
2013,09,26,19,06,1.60
2013,09,26,19,07,6.40
2013,09,26,19,08,1.60
2013,09,26,19,09,4.80
2013,09,26,19,10,1.60
2013,09,26,19,11,6.40
2013,09,26,19,12,3.20
2013,09,26,19,13,4.80
2013,09,26,19,14,4.80
2013,09,26,19,15,3.20
2013,09,26,19,16,3.20
2013,09,26,19,17,1.60
2013,09,26,19,18,3.20
2013,09,26,19,19,4.80
2013,09,26,19,20,1.60
2013,09,26,19,21,1.60
2013,09,26,19,26,3.20
2013,09,26,19,28,1.60
2013,09,26,19,29,4.80
2013,09,26,19,30,3.20
2013,09,26,19,40,1.60
2013,09,26,19,44,1.60
2013,09,26,19,48,3.20
2013,09,26,19,49,4.80
2013,09,26,19,50,3.20
2013,09,26,19,51,1.60
2013,09,26,19,53,4.80
2013,09,26,19,54,3.20
2013,09,26,19,55,4.80
2013,09,26,19,56,6.40
2013,09,26,19,57,3.20
2013,09,26,19,59,1.60
2013,09,26,20,00,4.80
2013,09,26,20,01,4.80
2013,09,26,20,02,1.60
2013,09,26,20,03,4.80
2013,09,26,20,05,1.60
2013,09,26,20,06,1.60
2013,09,26,20,07,3.20
2013,09,26,20,08,1.60
2013,09,26,20,09,4.80
2013,09,26,20,11,3.20
2013,09,26,20,12,3.20
2013,09,26,20,13,1.60
2013,09,26,20,14,1.60
2013,09,26,20,15,1.60
2013,09,26,20,17,3.20
2013,09,26,20,18,1.60
2013,09,26,20,19,4.80
2013,09,26,20,20,6.40
2013,09,26,20,21,1.60
2013,09,26,20,22,3.20
2013,09,26,20,23,4.80
2013,09,26,20,24,4.80
2013,09,26,20,25,4.80
2013,09,26,20,26,8.10
2013,09,26,20,27,6.40
2013,09,26,20,28,8.10
2013,09,26,20,29,6.40
2013,09,26,20,30,6.40
2013,09,26,20,31,4.80
2013,09,26,20,32,9.60
2013,09,26,20,33,8.10
2013,09,26,20,34,6.40
2013,09,26,20,35,9.60
2013,09,26,20,36,6.40
2013,09,26,20,37,6.40
2013,09,26,20,38,6.40
2013,09,26,20,39,6.40
2013,09,26,20,40,6.40
2013,09,26,20,41,4.80
2013,09,26,20,42,4.80
2013,09,26,20,43,4.80
2013,09,26,20,44,6.40
2013,09,26,20,45,4.80
2013,09,26,20,46,6.40
2013,09,26,20,47,4.80
2013,09,26,20,48,4.80
2013,09,26,20,49,4.80
2013,09,26,20,50,6.40
2013,09,26,20,51,6.40
2013,09,26,20,52,4.80
2013,09,26,20,53,4.80
2013,09,26,20,54,6.40
2013,09,26,20,55,6.40
2013,09,26,20,56,8.10
2013,09,26,20,57,6.40
2013,09,26,20,58,4.80
2013,09,26,20,59,6.40
2013,09,26,21,00,6.40
2013,09,26,21,01,4.80
2013,09,26,21,02,6.40
2013,09,26,21,03,3.20
2013,09,26,21,04,4.80
2013,09,26,21,05,6.40
2013,09,26,21,06,4.80
2013,09,26,21,07,3.20
2013,09,26,21,08,3.20
2013,09,26,21,09,3.20
2013,09,26,21,10,6.40
2013,09,26,21,11,3.20
2013,09,26,21,12,3.20
2013,09,26,21,13,3.20
2013,09,26,21,14,4.80
2013,09,26,21,15,3.20
2013,09,26,21,16,3.20
2013,09,26,21,17,3.20
2013,09,26,21,18,3.20
2013,09,26,21,19,4.80
2013,09,26,21,20,1.60
2013,09,26,21,21,1.60
2013,09,26,21,22,4.80
2013,09,26,21,23,3.20
2013,09,26,21,24,3.20
2013,09,26,21,25,4.80
2013,09,26,21,26,8.10
2013,09,26,21,27,6.40
2013,09,26,21,28,4.80
2013,09,26,21,29,6.40
2013,09,26,21,30,6.40
2013,09,26,21,31,6.40
2013,09,26,21,32,3.20
2013,09,26,21,33,4.80
2013,09,26,21,34,4.80
2013,09,26,21,35,6.40
2013,09,26,21,36,8.10
2013,09,26,21,37,4.80
2013,09,26,21,38,6.40
2013,09,26,21,39,4.80
2013,09,26,21,40,8.10
2013,09,26,21,41,8.10
2013,09,26,21,42,6.40
2013,09,26,21,43,4.80
2013,09,26,21,44,9.60
2013,09,26,21,45,4.80
2013,09,26,21,46,6.40
2013,09,26,21,47,9.60
2013,09,26,21,48,8.10
2013,09,26,21,49,8.10
2013,09,26,21,50,8.10
2013,09,26,21,51,6.40
2013,09,26,21,52,4.80
2013,09,26,21,53,8.10
2013,09,26,21,54,6.40
2013,09,26,21,55,6.40
2013,09,26,21,56,6.40
2013,09,26,21,57,6.40
2013,09,26,21,58,4.80
2013,09,26,21,59,4.80
2013,09,26,22,00,6.40
2013,09,26,22,01,4.80
2013,09,26,22,02,6.40
2013,09,26,22,03,6.40
2013,09,26,22,04,3.20
2013,09,26,22,05,6.40
2013,09,26,22,06,4.80
2013,09,26,22,07,4.80
2013,09,26,22,08,4.80
2013,09,26,22,09,6.40
2013,09,26,22,10,4.80
2013,09,26,22,11,4.80
2013,09,26,22,12,9.60
2013,09,26,22,13,8.10
2013,09,26,22,14,8.10
2013,09,26,22,15,4.80
2013,09,26,22,16,8.10
2013,09,26,22,17,6.40
2013,09,26,22,18,6.40
2013,09,26,22,19,8.10
2013,09,26,22,20,4.80
2013,09,26,22,21,8.10
2013,09,26,22,22,4.80
2013,09,26,22,23,8.10
2013,09,26,22,24,4.80
2013,09,26,22,25,6.40
2013,09,26,22,26,6.40
2013,09,26,22,27,8.10
2013,09,26,22,28,8.10
2013,09,26,22,29,6.40
2013,09,26,22,30,6.40
2013,09,26,22,31,6.40
2013,09,26,22,32,6.40
2013,09,26,22,33,8.10
2013,09,26,22,34,8.10
2013,09,26,22,35,11.30
2013,09,26,22,36,8.10
2013,09,26,22,37,6.40
2013,09,26,22,38,8.10
2013,09,26,22,39,9.60
2013,09,26,22,40,8.10
2013,09,26,22,41,6.40
2013,09,26,22,42,8.10
2013,09,26,22,43,6.40
2013,09,26,22,44,6.40
2013,09,26,22,45,9.60
2013,09,26,22,46,9.60
2013,09,26,22,47,9.60
2013,09,26,22,48,8.10
2013,09,26,22,49,8.10
2013,09,26,22,50,8.10
2013,09,26,22,51,4.80
2013,09,26,22,52,4.80
2013,09,26,22,53,8.10
2013,09,26,22,54,8.10
2013,09,26,22,55,4.80
2013,09,26,22,56,4.80
2013,09,26,22,57,6.40
2013,09,26,22,58,6.40
2013,09,26,22,59,8.10
2013,09,26,23,00,4.80
2013,09,26,23,01,8.10
2013,09,26,23,02,6.40
2013,09,26,23,03,6.40
2013,09,26,23,04,4.80
2013,09,26,23,05,6.40
2013,09,26,23,06,4.80
2013,09,26,23,07,1.60
2013,09,26,23,08,4.80
2013,09,26,23,09,4.80
2013,09,26,23,10,6.40
2013,09,26,23,11,6.40
2013,09,26,23,12,6.40
2013,09,26,23,13,8.10